Location: Allie Creek
(37.5926°N, 89.8526°W)
Time: 19:47:26
(UTC+00:00)

USA 215 - Pass Details

Date: 26 September 2023
Orbit: 1098 x 1109 km, 123.0° (Epoch: 06 December)

Event Time Altitude Azimuth Distance (km) Brightness Sun altitude
Rises 00:17:04 0° 52° (NE) 3,927 5.7 -5.8°
Reaches altitude 10° 00:19:48 10° 61° (ENE) 2,967 5.0 -6.4°
Maximum altitude 00:25:46 37° 127° (SE) 1,657 3.8 -7.5°
Drops below altitude 10° 00:31:42 10° 192° (SSW) 2,960 5.6 -8.7°
Sets 00:34:24 0° 201° (SSW) 3,916 6.4 -9.2°
